Weather History for Louisville Bowman, KY

Change the Weather History Date:

Friday, June 14, 2013

  Actual Average Record
Temperature  
Mean Temperature 71 °F 75 °F  
Max Temperature 84 °F 85 °F 94 °F (1954)
Min Temperature 57 °F 66 °F 39 °F (2004)
Degree Days  
Heating Degree Days 0 0  
Month to date heating degree days 0 2  
Since 1 June heating degree days 0 2  
Since 1 July heating degree days 4329 4267  
Cooling Degree Days 6 10  
Month to date cooling degree days 108 119  
Year to date cooling degree days 294 266  
Since 1 June cooling degree days 108 119  
Growing Degree Days 20 (Base 50)    
Moisture  
Dew Point 55 °F    
Average Humidity 57    
Maximum Humidity 80    
Minimum Humidity 34    
Precipitation  
Precipitation 0.00 in 0.14 in 1.58 in (1950)
Month to date precipitation 0.48 2.25  
Year to date precipitation 19.21 22.17  
Sea Level Pressure  
Sea Level Pressure 30.01 in    
Wind  
Wind Speed 4 mph (North)    
Max Wind Speed 9 mph    
Max Gust Speed 14 mph    
Visibility 10 miles    
Events      
T = Trace of Precipitation, MM = Missing Value Source: NWS Daily Summary

Daily Weather History Graph

Daily Weather History Graph

Search for Another Location

Airport:

Trip Planner

Search our weather history database for the weather conditions in past years. The results will help you decide how hot, cold, wet, or windy it might be!

Date:

Astronomy

Jun. 14, 2013 Rise Set
Actual Time 6:18 AM EDT 9:07 PM EDT
Civil Twilight 5:47 AM EDT 9:38 PM EDT
Nautical Twilight 5:07 AM EDT 10:18 PM EDT
Astronomical Twilight 4:22 AM EDT 11:03 PM EDT
Moon 11:49 AM EDT (6/14) 12:16 AM EDT (6/14)
Length of Visible Light 15h 51m
Length of Day
14h 48m
Waxing Crescent, 30% of the Moon is Illuminated
Jun 14
Waxing Crescent
Jun 16
First Quarter
Jun 23
Full
Jun 30
Last Quarter
Jul 8
New

Hourly Weather History & Observations

Time (EDT) Temp. Heat Index Dew Point Humidity Pressure Visibility Wind Dir Wind Speed Gust Speed Precip Events Conditions
12:53 AM 68.0 °F - 52.0 °F 56% 29.96 in 10.0 mi North 4.6 mph - N/A   Clear
1:53 AM 66.0 °F - 53.1 °F 63% 29.95 in 10.0 mi NNW 5.8 mph - N/A   Clear
2:53 AM 64.0 °F - 52.0 °F 65% 29.94 in 10.0 mi NNW 4.6 mph - N/A   Clear
3:53 AM 62.1 °F - 53.1 °F 72% 29.94 in 10.0 mi Calm Calm - N/A   Clear
4:53 AM 61.0 °F - 53.1 °F 75% 29.95 in 10.0 mi Calm Calm - N/A   Clear
5:53 AM 60.1 °F - 53.1 °F 78% 29.97 in 10.0 mi Calm Calm - N/A   Clear
6:53 AM 59.0 °F - 53.1 °F 81% 30.01 in 10.0 mi NW 3.5 mph - N/A   Clear
7:53 AM 62.1 °F - 53.1 °F 72% 30.01 in 10.0 mi North 6.9 mph - N/A   Clear
8:53 AM 64.9 °F - 54.0 °F 68% 30.04 in 10.0 mi NNW 6.9 mph - N/A   Clear
9:53 AM 68.0 °F - 55.9 °F 65% 30.03 in 10.0 mi Variable 3.5 mph - N/A   Clear
10:53 AM 70.0 °F - 57.0 °F 63% 30.04 in 10.0 mi Variable 3.5 mph - N/A   Clear
11:53 AM 73.9 °F - 57.0 °F 55% 30.06 in 10.0 mi WNW 5.8 mph - N/A   Clear
12:53 PM 75.9 °F - 57.9 °F 54% 30.05 in 10.0 mi Variable 3.5 mph - N/A   Clear
1:53 PM 79.0 °F - 57.0 °F 47% 30.03 in 10.0 mi Calm Calm - N/A   Clear
2:53 PM 80.1 °F 80.2 °F 55.9 °F 43% 30.02 in 10.0 mi Calm Calm - N/A   Partly Cloudy
3:53 PM 82.0 °F 81.4 °F 55.0 °F 39% 30.02 in 10.0 mi NE 5.8 mph - N/A   Mostly Cloudy
4:53 PM 82.9 °F 82.1 °F 55.9 °F 39% 30.02 in 10.0 mi Variable 5.8 mph - N/A   Mostly Cloudy
5:53 PM 82.9 °F 81.8 °F 53.1 °F 36% 30.02 in 10.0 mi NE 8.1 mph - N/A   Partly Cloudy
6:53 PM 82.9 °F - 52.0 °F 34% 30.01 in 10.0 mi NW 6.9 mph - N/A   Mostly Cloudy
7:53 PM 81.0 °F 80.5 °F 54.0 °F 39% 30.00 in 10.0 mi NE 4.6 mph - N/A   Clear
8:53 PM 78.1 °F - 57.0 °F 48% 30.00 in 10.0 mi NNE 3.5 mph - N/A   Clear
9:53 PM 77.0 °F - 57.0 °F 50% 30.01 in 10.0 mi NNE 3.5 mph - N/A   Clear
10:53 PM 75.0 °F - 57.9 °F 55% 30.04 in 10.0 mi East 3.5 mph - N/A   Clear
11:53 PM 73.0 °F - 57.9 °F 59% 30.03 in 10.0 mi Calm Calm - N/A   Clear